This is the latest recevied weather packets stored in our database for station/object CQ0XSM-11. If no packets are shown the sender has not sent any weather packets the latest 10 day(s).
| Time | Temp. | Humidity | Pressure | Rain* | Wind** | Luminosity | Snow |
|---|---|---|---|---|---|---|---|
| 1778076708 | 17.22° C | 38% | 992 hPa | 0 mm | - | - | - |
| 1778076403 | 17.22° C | 36% | 992.1 hPa | 0 mm | - | - | - |
| 1778076150 | 17.22° C | 39% | 992 hPa | 0 mm | - | - | - |
| 1778075796 | 16.67° C | 40% | 992.2 hPa | 0 mm | - | - | - |
| 1778075501 | 16.67° C | 40% | 992.2 hPa | 0 mm | - | - | - |
| 1778075211 | 16.11° C | 38% | 992.3 hPa | 0 mm | - | - | - |
| 1778074888 | 16.67° C | 38% | 992.3 hPa | 0 mm | - | - | - |
| 1778074591 | 16.67° C | 39% | 992.4 hPa | 0 mm | - | - | - |
| 1778074291 | 17.22° C | 37% | 992.4 hPa | 0 mm | - | - | - |
| 1778073988 | 17.78° C | 36% | 992.4 hPa | 0 mm | - | - | - |
| 1778073689 | 17.22° C | 37% | 992.5 hPa | 0 mm | - | - | - |
| 1778073393 | 17.22° C | 37% | 992.7 hPa | 0 mm | - | - | - |
| 1778073086 | 17.22° C | 38% | 992.7 hPa | 0 mm | - | - | - |
| 1778072172 | 17.22° C | 38% | 992.9 hPa | 0 mm | - | - | - |
| 1778071867 | 17.22° C | 38% | 992.8 hPa | 0 mm | - | - | - |
| 1778071565 | 17.78° C | 37% | 993 hPa | 0 mm | - | - | - |
| 1778071264 | 17.22° C | 38% | 993 hPa | 0 mm | - | - | - |
| 1778070941 | 17.22° C | 40% | 993.1 hPa | 0 mm | - | - | - |
| 1778070647 | 16.67° C | 41% | 993.1 hPa | 0 mm | - | - | - |
| 1778070329 | 16.67° C | 39% | 993.3 hPa | 0 mm | - | - | - |
| 1778070059 | 17.22° C | 40% | 993.3 hPa | 0 mm | - | - | - |
| 1778069722 | 16.67° C | 40% | 993.3 hPa | 0 mm | - | - | - |
| 1778069454 | 16.11° C | 43% | 993.4 hPa | 0 mm | - | - | - |
| 1778069116 | 16.11° C | 40% | 993.5 hPa | 0 mm | - | - | - |
| 1778068864 | 16.67° C | 41% | 993.4 hPa | 0 mm | - | - | - |
* Rain since midnight (hover to see other rain measurements)
** Current wind speed in m/s (hover to see current wind gust speed)